FW3337 Weather Reports


Display with metric or nautical units.
time (UTC)temp
F
wind
direction
speed
MPH
gust
MPH
rain 1hr
in
rain 24hr
in
rain mn
in
humidity
%
barometer
mb
20260509061536 48 228 0.0 0.0 0.02 0.08 0.02 93 1012.5
20260509060038 48 228 0.0 1.0 0.02 0.08 0.02 93 1012.5
20260509054532 48 228 0.0 0.0 0.02 0.10 0.02 92 1012.8
20260509053031 48 228 0.0 3.0 0.01 0.09 0.01 92 1012.8
20260509051530 48 228 0.0 0.0 0.00 0.08 0.00 91 1012.8
20260509050043 48 228 0.0 0.0 0.00 0.08 0.00 91 1013.2
20260509044527 48 228 0.0 0.0 0.00 0.08 0.00 90 1012.9
20260509043025 48 228 0.0 0.0 0.00 0.08 0.00 90 1012.9
20260509041523 49 228 0.0 0.0 0.00 0.08 0.00 89 1012.9
20260509040019 49 228 0.0 0.0 0.00 0.08 0.08 89 1013.0
20260509034519 49 228 0.0 0.0 0.00 0.08 0.08 88 1012.8
20260509033018 49 228 0.0 0.0 0.00 0.08 0.08 87 1013.0
20260509031529 50 228 0.0 0.0 0.00 0.08 0.08 87 1013.2
20260509030016 50 228 0.0 0.0 0.00 0.08 0.08 87 1013.1
20260509024529 50 228 0.0 0.0 0.00 0.08 0.08 86 1013.1
20260509023018 50 228 0.0 0.0 0.00 0.08 0.08 85 1013.0
20260509021516 50 228 0.0 0.0 0.00 0.08 0.08 85 1012.8
20260509020012 50 228 0.0 0.0 0.00 0.08 0.08 85 1012.6
20260509014511 50 228 0.0 2.0 0.00 0.08 0.08 84 1012.4
20260509013021 50 228 0.0 0.0 0.00 0.08 0.08 83 1012.2
20260509011511 50 228 0.0 0.0 0.00 0.08 0.08 81 1011.8
20260509010013 51 228 0.0 0.0 0.00 0.08 0.08 80 1011.9
20260509004508 51 228 0.0 0.0 0.00 0.08 0.08 79 1011.6
20260509003008 52 228 0.0 0.0 0.00 0.08 0.08 76 1011.5
20260509001507 53 228 0.0 0.0 0.00 0.08 0.08 74 1011.4
20260509000010 54 228 0.0 0.0 0.00 0.08 0.08 69 1011.4
20260508234507 55 228 0.0 1.0 0.00 0.08 0.08 63 1011.3
20260508233006 56 228 0.0 1.0 0.00 0.08 0.08 60 1011.2
20260508231506 56 228 1.0 3.0 0.00 0.08 0.08 59 1011.2
20260508230004 56 228 1.0 4.0 0.00 0.08 0.08 59 1011.2
20260508224506 56 228 0.0 2.0 0.00 0.08 0.08 60 1011.0
20260508223011 56 227 0.0 4.0 0.00 0.08 0.08 58 1010.9
20260508221503 57 218 0.0 2.0 0.00 0.08 0.08 59 1011.0
20260508220006 57 218 1.0 5.0 0.00 0.08 0.08 58 1011.0
20260508214502 57 215 2.0 8.0 0.00 0.08 0.08 57 1010.9
20260508213008 56 220 0.0 3.0 0.00 0.08 0.08 60 1011.0
20260508211501 55 222 3.0 7.0 0.00 0.08 0.08 60 1011.2
20260508204622 55 276 1.0 4.0 0.00 0.08 0.08 62 1011.2
20260508203103 55 249 2.0 8.0 0.00 0.08 0.08 63 1011.2
20260508201614 55 294 3.0 9.0 0.00 0.08 0.08 62 1011.2
20260508200128 55 224 1.0 6.0 0.00 0.08 0.08 68 1011.1
20260508194558 54 273 1.0 8.0 0.00 0.08 0.08 69 1011.3
20260508193058 53 283 0.0 5.0 0.01 0.08 0.08 75 1011.5
20260508191558 51 305 0.0 5.0 0.01 0.08 0.08 74 1012.0
20260508190104 50 4 1.0 8.0 0.01 0.08 0.08 77 1012.0
20260508184555 51 299 2.0 11.0 0.01 0.08 0.08 73 1012.3
20260508183056 55 301 5.0 11.0 0.00 0.07 0.07 58 1012.0
20260508181611 56 313 3.0 9.0 0.00 0.07 0.07 55 1011.3
20260508180109 55 304 0.0 8.0 0.00 0.07 0.07 63 1011.2
20260508174559 55 346 2.0 11.0 0.00 0.07 0.07 59 1011.2
20260508173052 57 216 3.0 14.0 0.00 0.07 0.07 51 1011.0
20260508171552 57 232 4.0 11.0 0.00 0.07 0.07 49 1010.9
20260508170056 57 209 0.0 11.0 0.00 0.07 0.07 52 1010.9
20260508164555 57 226 3.0 14.0 0.00 0.07 0.07 51 1011.2
20260508163050 56 209 4.0 9.0 0.00 0.07 0.07 51 1011.3
20260508161549 57 290 2.0 15.0 0.00 0.07 0.07 50 1011.5
20260508160048 58 270 5.0 13.0 0.00 0.07 0.07 47 1011.4
20260508154553 57 203 5.0 12.0 0.00 0.07 0.07 48 1011.7
20260508153045 56 299 1.0 11.0 0.00 0.07 0.07 49 1012.0
20260508151544 57 276 2.0 8.0 0.00 0.07 0.07 46 1011.8
20260508150042 56 213 3.0 8.0 0.00 0.07 0.07 47 1011.7
20260508144540 56 307 2.0 6.0 0.00 0.07 0.07 52 1011.8
20260508143038 55 255 0.0 7.0 0.00 0.07 0.07 57 1011.9
20260508141546 54 219 2.0 8.0 0.00 0.07 0.07 56 1012.0
20260508140031 53 293 1.0 5.0 0.00 0.07 0.07 62 1012.4
20260508134531 52 224 2.0 5.0 0.00 0.07 0.07 63 1012.2
20260508133026 51 296 2.0 6.0 0.00 0.07 0.07 64 1012.0
20260508131523 51 304 0.0 6.0 0.00 0.07 0.07 69 1012.2
20260508130020 50 310 0.0 4.0 0.00 0.07 0.07 74 1012.4
20260508124517 49 288 0.0 5.0 0.00 0.07 0.07 76 1012.3
20260508123014 48 266 1.0 3.0 0.00 0.07 0.07 82 1012.4
20260508121511 47 255 1.0 7.0 0.00 0.07 0.07 84 1012.7
20260508120007 46 226 0.0 2.0 0.00 0.07 0.07 88 1012.4
20260508114505 45 245 1.0 4.0 0.00 0.07 0.07 91 1012.6
20260508113004 44 339 0.0 2.0 0.00 0.07 0.07 93 1012.4
20260508111502 43 299 0.0 1.0 0.00 0.07 0.07 94 1012.3
20260508110104 42 299 0.0 0.0 0.01 0.07 0.07 95 1012.0
20260508104558 41 299 0.0 1.0 0.01 0.07 0.07 94 1012.0
20260508103126 41 299 0.0 0.0 0.01 0.07 0.07 94 1011.9
20260508101614 40 299 0.0 0.0 0.01 0.07 0.07 93 1011.8
20260508100053 41 299 0.0 0.0 0.00 0.06 0.06 93 1011.8
20260508094605 41 299 0.0 0.0 0.00 0.06 0.06 93 1011.6
20260508093049 42 299 0.0 0.0 0.00 0.06 0.06 93 1011.4
20260508091549 42 299 0.0 0.0 0.00 0.06 0.06 93 1011.4
20260508090058 43 299 0.0 0.0 0.00 0.06 0.06 93 1011.4
20260508084546 43 299 0.0 1.0 0.00 0.06 0.06 93 1011.1
20260508083102 43 299 0.0 2.0 0.00 0.06 0.06 92 1011.0
20260508081545 44 299 0.0 0.0 0.00 0.06 0.06 93 1011.1
20260508080052 44 299 0.0 2.0 0.00 0.06 0.06 93 1011.0
20260508074549 44 299 0.0 0.0 0.00 0.07 0.06 92 1011.0
20260508073044 44 299 0.0 0.0 0.00 0.07 0.06 92 1011.1
20260508071544 44 299 0.0 0.0 0.02 0.07 0.06 92 1011.2
20260508070042 44 299 0.0 1.0 0.04 0.07 0.06 91 1011.4
20260508064551 44 299 0.0 1.0 0.06 0.14 0.06 91 1011.5
20260508063040 44 299 0.0 6.0 0.06 0.14 0.06 89 1011.7